Content
SEND FEEDBACK

Daily
Averages
Monthly
Summary
Mexico

CANCUN, QUINTANA ROO


Home > North America > Mexico > Quintana Roo
Elevation: 9 meters     Latitude: 21 09N     Longitude: 086 49W

WEATHER
 
SELECT A DAY
Number of Records: 165,850;   Date Range: 1/1/95 - 9/30/14
 
SHARE

PRINT THIS DATA

[ ← Previous Day ]
WEATHER ALMANAC - 7 AUGUST, 2014
[ Next Day → ]
[ °F ]   °C
Weather ElementAverageHighLow
Temperature28.8 °C33 °C (2:45 pm)24 °C (2:43 am)
Dewpoint24.3 °C25 °C (9:47 pm)23 °C (12:45 am)
Humidity77.5 %100 % (2:43 am)59 % (12:46 pm)
Barometer1015.2 hPa1016.9 hPa (10:40 am)1013.5 hPa (4:41 pm)
Wind Speed8 km/h18.5 km/h (6:40 pm)
Weather ElementAverage
Visibility11.3 km
Wind DirectionENE (52.5 °)

Weather ElementTotal
Precipitation---
Cooling Degree Days10.2 (Base 18.3)
Growing Degree Days18.5 (Base 10)
Averaged from 24 records on 7 August, 2014
WEATHER CONDITIONS BREAKOUT
WIND DIRECTION BREAKOUT
WEATHER BY HOUR - 7 AUGUST, 2014
[ °F ]   °C
Local TimeTemperatureDewpointHumidityBarometerVisibilityWind DirectionWind SpeedGust SpeedPrecipitationEventsConditions
12:45 AM27 °C25 °C89 %1015.9 hPa11.3 kmEast (100°)9.3 km/hPartly Cloudy
1:44 AM27 °C25 °C89 %1016.3 hPa11.3 kmESE (110°)9.3 km/hClear
2:43 AM26 °C25 °C94 %1015.9 hPa11.3 kmCalmClear
3:48 AM25 °C24 °C94 %1014.9 hPa11.3 kmCalmClear
4:47 AM24 °C24 °C100 %1015.6 hPa11.3 kmCalmPartly Cloudy
5:46 AM24 °C23 °C94 %1015.6 hPa11.3 kmCalmScattered Clouds
6:45 AM24 °C23 °C94 %1015.9 hPa11.3 kmCalmScattered Clouds
7:43 AM27 °C25 °C89 %1016.3 hPa11.3 kmCalmPartly Cloudy
8:40 AM30 °C25 °C74 %1016.3 hPa11.3 kmEast (100°)9.3 km/hScattered Clouds
9:43 AM31 °C23 °C62 %1015.9 hPa11.3 kmEast (80°)13 km/hScattered Clouds
10:43 AM32 °C23 °C59 %1016.9 hPa11.3 kmENE (70°)13 km/hScattered Clouds
11:40 AM33 °C24 °C59 %1016.6 hPa11.3 kmEast (90°)7.4 km/hScattered Clouds
12:44 PM32 °C25 °C66 %1015.2 hPa11.3 kmESE (120°)9.3 km/hScattered Clouds
1:41 PM33 °C25 °C63 %1015.2 hPa11.3 kmENE (70°)16.7 km/hScattered Clouds
2:50 PM32 °C25 °C66 %1014.9 hPa11.3 kmNE (50°)16.7 km/hScattered Clouds
3:42 PM32 °C23 °C59 %1013.5 hPa11.3 kmEast (80°)18.5 km/hScattered Clouds
4:43 PM31 °C25 °C70 %1014.2 hPa11.3 kmNE (50°)11.1 km/hScattered Clouds
5:40 PM31 °C24 °C66 %1013.9 hPa11.3 kmNE (40°)13 km/hScattered Clouds
6:41 PM30 °C25 °C74 %1013.5 hPa11.3 kmNE (50°)14.8 km/hMostly Cloudy
7:44 PM29 °C25 °C79 %1015.6 hPa11.3 kmNNE (30°)5.6 km/hMostly Cloudy
8:40 PM28 °C25 °C84 %1014.6 hPa11.3 kmNE (50°)5.6 km/hScattered Clouds
9:42 PM28 °C24 °C79 %1014.2 hPa11.3 kmNE (40°)5.6 km/hPartly Cloudy
10:47 PM28 °C24 °C79 %1015.9 hPa11.3 kmENE (60°)5.6 km/hPartly Cloudy
11:48 PM28 °C24 °C79 %1015.6 hPa11.3 kmENE (70°)7.4 km/hPartly Cloudy
Hourly data recorded from MMUN, located 0 kilometers away from Cancun, Quintana Roo







STORIES FROM OUR PARTNERS